Find Starlink 30939

NORAD ID: 58393 Int'l Des: 2023-178 Owner: SPXS Country: US Constellation: starlink operational
LEOCIRCULAR

Current View

Loading 3D Globe...

About Starlink 30939

Starlink 30939 (NORAD 58393) is a starlink constellation satellite (v2 mini) launched Nov 20, 2023 by SPXS of US. It operates in LEO, CIRCULAR orbit with a mass of 730.00 kg.

Upcoming Passes

Passes for default location (London). Set your location on the main map for personalized predictions.

Altitude History

Loading altitude history...

Two-Line Element Set

1 58393U 23178V 26234.93372020 .00000681 00000-0 31280-4 0 9995
2 58393 53.1597 305.3747 0001013 81.7831 278.3287 15.34390940155266
Epoch: Aug 22, 2026 • Age: 28 hours

Current Status

Altitude 467.1 km
Apogee / Perigee N/A
Velocity 7.64 km/s
Sub-Earth Point 46.31°N, 23.71°W
Launch Date Nov 20, 2023
Age 2.7 years
Type internet

Technical Details

Classification Payload
Mass 730.00 kg
Dry Mass 700.00 kg
Total Mass 730.00 kg
Length 0.30 m
Diameter 4.10 m
Span 29.00 m
Shape Box + pan
Manufacturer SPXS
Bus Type Starlink V2M
Phase Status In Orbit
Owner/State SPXS/US

Most Searched